Home > Products > Valid Products > RWR

000
ASUS42 KRAH 252010
RWRRAH
NORTH CAROLINA WEATHER ROUNDUP
NATIONAL WEATHER SERVICE RALEIGH NC
400 PM EDT WED MAY 25 2016

NOTE: "FAIR" INDICATES FEW OR NO CLOUDS BELOW 12,000 FEET WITH NO
SIGNIFICANT WEATHER AND/OR OBSTRUCTIONS TO VISIBILITY.

NCZ001-053-055-056-065-067-252100-
WESTERN NORTH CAROLINA

CITY           SKY/WX    TMP DP  RH WIND       PRES   REMARKS
ASHEVILLE      PTSUNNY   79  55  43 S12       30.24F
JEFFERSON      CLOUDY    73  53  50 SE3       30.27F
MORGANTON      SUNNY     85  50  29 SE3       30.23F
HICKORY        SUNNY     83  54  36 SW9       30.19F
RUTHERFORDTON  MOSUNNY   84  54  36 CALM      30.20F
MOUNT AIRY     SUNNY     83  59  43 SW6       30.21F
BOONE          CLOUDY    73  51  44 W8        30.29S
$$

NCZ021-022-025-041-071-084-088-252100-
CENTRAL NORTH CAROLINA

CITY           SKY/WX    TMP DP  RH WIND       PRES   REMARKS
CHARLOTTE      MOSUNNY   85  56  37 SW6       30.19F
GREENSBORO     PTSUNNY   84  48  28 VRB5      30.18F
WINSTON-SALEM  SUNNY     84  50  30 VRB6      30.19F
RALEIGH-DURHAM MOSUNNY   86  58  38 W9        30.17F
FORT BRAGG     MOSUNNY   88  54  31 VRB3      30.16F
FAYETTEVILLE   MOSUNNY   88  55  32 SW12      30.17F
BURLINGTON     SUNNY     86  52  30 SW9       30.17F
LAURINBURG     MOSUNNY   88  56  33 SW10      30.18F
$$

NCZ011-015-027-028-043-044-047-080-103-252100-
NORTHEASTERN NORTH CAROLINA

CITY           SKY/WX    TMP DP  RH WIND       PRES   REMARKS
ROCKY MT-WILSO MOSUNNY   87  56  34 SW8       30.16F
GREENVILLE     MOSUNNY   88  55  33 SW5       30.18F
WASHINGTON     SUNNY     86  57  36 NW5       30.16F
ELIZABETH CITY MOSUNNY   86  58  38 SW14      30.15F
MANTEO         SUNNY     81  65  57 S13       30.17F
CAPE HATTERAS  SUNNY     77  67  71 SW8       30.20F
$$

NCZ078-087-090-091-093-098-101-252100-
SOUTHEASTERN NORTH CAROLINA

CITY           SKY/WX    TMP DP  RH WIND       PRES   REMARKS
LUMBERTON      MOSUNNY   88  55  32 CALM      30.17F
GOLDSBORO      PTSUNNY   87  54  31 SW12      30.16F
KINSTON        MOSUNNY   88  54  31 S6        30.18F
KENANSVILLE    PTSUNNY   87  53  30 W6        30.19S
NEW BERN       MOSUNNY   87  58  37 S10       30.18F
CHERRY POINT   MOSUNNY   83  57  41 S12       30.19F
BEAUFORT       SUNNY     77  68  73 S13       30.21S
JACKSONVILLE   SUNNY     83  58  42 S14       30.18F
WILMINGTON     SUNNY     85  58  39 S10       30.19S
$$







000
ASUS42 KRAH 251910
RWRRAH
NORTH CAROLINA WEATHER ROUNDUP
NATIONAL WEATHER SERVICE RALEIGH NC
300 PM EDT WED MAY 25 2016

NOTE: "FAIR" INDICATES FEW OR NO CLOUDS BELOW 12,000 FEET WITH NO
SIGNIFICANT WEATHER AND/OR OBSTRUCTIONS TO VISIBILITY.

NCZ001-053-055-056-065-067-252000-
WESTERN NORTH CAROLINA

CITY           SKY/WX    TMP DP  RH WIND       PRES   REMARKS
ASHEVILLE      CLOUDY    79  54  41 S8        30.26F
JEFFERSON      CLOUDY    72  53  51 SE5       30.29S
MORGANTON      SUNNY     85  51  30 SW3       30.25F
HICKORY        SUNNY     83  55  38 VRB6      30.20F
RUTHERFORDTON  SUNNY     83  55  38 SW7G17    30.22F
MOUNT AIRY     SUNNY     83  57  42 S5        30.22F
BOONE          PTSUNNY   76  53  44 S5        30.30F
$$

NCZ021-022-025-041-071-084-088-252000-
CENTRAL NORTH CAROLINA

CITY           SKY/WX    TMP DP  RH WIND       PRES   REMARKS
CHARLOTTE      MOSUNNY   84  56  38 SW8       30.21F
GREENSBORO     PTSUNNY   85  49  28 W8        30.19F
WINSTON-SALEM  SUNNY     83  46  27 VRB3      30.21F
RALEIGH-DURHAM MOSUNNY   87  58  37 W12       30.18F
FORT BRAGG     SUNNY     86  53  32 VRB6      30.17F
FAYETTEVILLE   MOSUNNY   88  53  30 S10G17    30.18F
BURLINGTON     SUNNY     86  54  33 SW7       30.18F
LAURINBURG     MOSUNNY   86  55  34 W8        30.20S
$$

NCZ011-015-027-028-043-044-047-080-103-252000-
NORTHEASTERN NORTH CAROLINA

CITY           SKY/WX    TMP DP  RH WIND       PRES   REMARKS
ROCKY MT-WILSO MOSUNNY   86  56  35 VRB5      30.17F
GREENVILLE     SUNNY     86  54  32 SW5       30.19F
WASHINGTON     MOSUNNY   85  57  38 S3        30.18F
ELIZABETH CITY MOSUNNY   85  59  41 S12G18    30.17S
MANTEO         MOSUNNY   83  61  47 SW7       30.19S
CAPE HATTERAS  SUNNY     77  67  71 SW7       30.22S
$$

NCZ078-087-090-091-093-098-101-252000-
SOUTHEASTERN NORTH CAROLINA

CITY           SKY/WX    TMP DP  RH WIND       PRES   REMARKS
LUMBERTON      PTSUNNY   88  56  33 SW9       30.19F
GOLDSBORO      MOSUNNY   87  55  32 S9        30.17F
KINSTON        MOSUNNY   86  50  28 S5        30.19F
KENANSVILLE    MOSUNNY   86  52  30 SW6       30.20F
NEW BERN       SUNNY     86  55  34 CALM      30.20F
CHERRY POINT   MOSUNNY   84  58  40 S12       30.20F
BEAUFORT       SUNNY     79  68  69 SW12      30.21F
JACKSONVILLE   PTSUNNY   83  58  42 S14       30.19F
WILMINGTON     MOSUNNY   85  57  38 S10       30.19F
$$







000
ASUS42 KRAH 251610
RWRRAH
NORTH CAROLINA WEATHER ROUNDUP
NATIONAL WEATHER SERVICE RALEIGH NC
1200 PM EDT WED MAY 25 2016

NOTE: "FAIR" INDICATES FEW OR NO CLOUDS BELOW 12,000 FEET WITH NO
SIGNIFICANT WEATHER AND/OR OBSTRUCTIONS TO VISIBILITY.

NCZ001-053-055-056-065-067-251700-
WESTERN NORTH CAROLINA

CITY           SKY/WX    TMP DP  RH WIND       PRES   REMARKS
ASHEVILLE      SUNNY     76  51  41 CALM      30.31S
JEFFERSON      SUNNY     72  49  44 NW6       30.32F
MORGANTON      SUNNY     79  51  37 SW3       30.30F
HICKORY        SUNNY     79  56  45 W5        30.25F
RUTHERFORDTON  SUNNY     79  54  42 S7        30.27S
MOUNT AIRY     SUNNY     80  56  43 SW5       30.27S
BOONE          SUNNY     74  48  39 N3G16     30.33S
$$

NCZ021-022-025-041-071-084-088-251700-
CENTRAL NORTH CAROLINA

CITY           SKY/WX    TMP DP  RH WIND       PRES   REMARKS
CHARLOTTE      MOSUNNY   80  59  48 W6        30.25R
GREENSBORO     MOSUNNY   82  51  34 CALM      30.23S
WINSTON-SALEM  SUNNY     81  54  39 CALM      30.25S
RALEIGH-DURHAM MOSUNNY   83  58  42 W6        30.22F
FORT BRAGG     SUNNY     83  58  42 SW6       30.21F
FAYETTEVILLE   SUNNY     84  59  42 W3        30.22S
BURLINGTON     SUNNY     82  55  39 W7        30.23R
LAURINBURG     SUNNY     84  61  45 MISG      30.23S
$$

NCZ011-015-027-028-043-044-047-080-103-251700-
NORTHEASTERN NORTH CAROLINA

CITY           SKY/WX    TMP DP  RH WIND       PRES   REMARKS
ROCKY MT-WILSO SUNNY     83  58  42 VRB5      30.21F
GREENVILLE     SUNNY     82  63  51 SW6       30.23S
WASHINGTON     SUNNY     82  60  47 SW6       30.22S
ELIZABETH CITY SUNNY     82  60  47 SW13      30.19F
MANTEO         SUNNY     80  61  52 NW5       30.21S
CAPE HATTERAS  SUNNY     77  63  61 W9        30.23S
$$

NCZ078-087-090-091-093-098-101-251700-
SOUTHEASTERN NORTH CAROLINA

CITY           SKY/WX    TMP DP  RH WIND       PRES   REMARKS
LUMBERTON      SUNNY     83  63  50 CALM      30.23S
GOLDSBORO      SUNNY     83  61  46 VRB1      30.21S
KENANSVILLE    MOSUNNY   81  59  47 CALM      30.24S
NEW BERN       SUNNY     83  60  45 SW8       30.24S
CHERRY POINT   MOSUNNY   83  61  47 W9        30.24S
BEAUFORT       SUNNY     77  67  71 S9        30.24S
JACKSONVILLE   SUNNY     83  56  39 VRB5      30.23S
WILMINGTON     MOSUNNY   83  59  44 SW8       30.23F
$$







000
ASUS42 KRAH 251510
RWRRAH
NORTH CAROLINA WEATHER ROUNDUP
NATIONAL WEATHER SERVICE RALEIGH NC
1100 AM EDT WED MAY 25 2016

NOTE: "FAIR" INDICATES FEW OR NO CLOUDS BELOW 12,000 FEET WITH NO
SIGNIFICANT WEATHER AND/OR OBSTRUCTIONS TO VISIBILITY.

NCZ001-053-055-056-065-067-251600-
WESTERN NORTH CAROLINA

CITY           SKY/WX    TMP DP  RH WIND       PRES   REMARKS
ASHEVILLE      SUNNY     73  50  44 CALM      30.31S
JEFFERSON      SUNNY     67  47  48 SE3       30.33R
MORGANTON      SUNNY     73  54  50 CALM      30.31S
HICKORY        SUNNY     74  57  55 CALM      30.26R
RUTHERFORDTON  SUNNY     76  53  46 CALM      30.27S
MOUNT AIRY     SUNNY     77  55  45 CALM      30.26S
BOONE          SUNNY     71  46  40 NW8       30.33R
$$

NCZ021-022-025-041-071-084-088-251600-
CENTRAL NORTH CAROLINA

CITY           SKY/WX    TMP DP  RH WIND       PRES   REMARKS
CHARLOTTE      SUNNY     77  59  53 VRB3      30.24R
GREENSBORO     PTSUNNY   78  53  41 CALM      30.23S
WINSTON-SALEM  SUNNY     77  55  46 CALM      30.25S
RALEIGH-DURHAM MOSUNNY   80  60  50 SW5       30.23S
FORT BRAGG     SUNNY     81  62  52 SW5       30.22S
FAYETTEVILLE   SUNNY     80  61  52 SW6       30.22F
BURLINGTON     SUNNY     79  57  46 W6        30.22S
LAURINBURG     MOSUNNY   80  65  59 W3        30.23F
$$

NCZ011-015-027-028-043-044-047-080-103-251600-
NORTHEASTERN NORTH CAROLINA

CITY           SKY/WX    TMP DP  RH WIND       PRES   REMARKS
ROCKY MT-WILSO SUNNY     80  61  52 W6        30.22S
GREENVILLE     SUNNY     81  63  54 W5        30.23S
WASHINGTON     SUNNY     80  63  56 SW8       30.22F
ELIZABETH CITY SUNNY     80  60  50 W10       30.20S
MANTEO         SUNNY     78  61  54 W6        30.22R
CAPE HATTERAS  SUNNY     75  65  70 W7        30.23S
$$

NCZ078-087-090-091-093-098-101-251600-
SOUTHEASTERN NORTH CAROLINA

CITY           SKY/WX    TMP DP  RH WIND       PRES   REMARKS
LUMBERTON      SUNNY     80  65  59 CALM      30.23S
GOLDSBORO      SUNNY     80  66  62 VRB5      30.21F
KINSTON        SUNNY     81  63  54 S9        30.23F
KENANSVILLE    SUNNY     79  63  58 SW3       30.24F
NEW BERN       SUNNY     81  62  52 W6        30.24F
CHERRY POINT   MOSUNNY   81  63  54 SW9       30.24F
BEAUFORT       SUNNY     76  66  71 SW8       30.24S
JACKSONVILLE   SUNNY     81  62  52 W6        30.23F
WILMINGTON     SUNNY     81  61  50 VRB7      30.24F
$$







000
ASUS42 KRAH 251410
RWRRAH
NORTH CAROLINA WEATHER ROUNDUP
NATIONAL WEATHER SERVICE RALEIGH NC
1000 AM EDT WED MAY 25 2016

NOTE: "FAIR" INDICATES FEW OR NO CLOUDS BELOW 12,000 FEET WITH NO
SIGNIFICANT WEATHER AND/OR OBSTRUCTIONS TO VISIBILITY.

NCZ001-053-055-056-065-067-251500-
WESTERN NORTH CAROLINA

CITY           SKY/WX    TMP DP  RH WIND       PRES   REMARKS
ASHEVILLE      CLOUDY    65  51  60 CALM      30.31S
JEFFERSON      NOT AVBL
MORGANTON      SUNNY     68  55  63 CALM      30.30R
HICKORY        SUNNY     70  54  56 CALM      30.24S
RUTHERFORDTON  SUNNY     71  57  61 W5        30.26S
MOUNT AIRY     SUNNY     73  60  63 CALM      30.26S
BOONE          SUNNY     66  47  49 CALM      30.32R
$$

NCZ021-022-025-041-071-084-088-251500-
CENTRAL NORTH CAROLINA

CITY           SKY/WX    TMP DP  RH WIND       PRES   REMARKS
CHARLOTTE      SUNNY     73  58  59 CALM      30.23F
GREENSBORO     MOSUNNY   75  56  51 VRB3      30.23S
WINSTON-SALEM  SUNNY     74  56  53 CALM      30.25R
RALEIGH-DURHAM MOSUNNY   76  61  59 VRB3      30.23S
FORT BRAGG     NOT AVBL
FAYETTEVILLE   SUNNY     76  63  64 W7        30.23S
BURLINGTON     SUNNY     76  56  49 SW6       30.22S
LAURINBURG     MOSUNNY   77  64  64 NW6       30.24S
$$

NCZ011-015-027-028-043-044-047-080-103-251500-
NORTHEASTERN NORTH CAROLINA

CITY           SKY/WX    TMP DP  RH WIND       PRES   REMARKS
ROCKY MT-WILSO SUNNY     76  63  64 W6        30.22S
GREENVILLE     SUNNY     77  64  65 SW7       30.23S
WASHINGTON     SUNNY     76  64  65 W7        30.22F
ELIZABETH CITY SUNNY     78  59  51 W12       30.20S
MANTEO         SUNNY     75  62  63 W5        30.21S
CAPE HATTERAS  SUNNY     73  64  73 W10       30.23R
$$

NCZ078-087-090-091-093-098-101-251500-
SOUTHEASTERN NORTH CAROLINA

CITY           SKY/WX    TMP DP  RH WIND       PRES   REMARKS
LUMBERTON      SUNNY     76  65  68 SW5       30.23S
GOLDSBORO      NOT AVBL
KINSTON        SUNNY     77  64  65 W6        30.24S
KENANSVILLE    MOSUNNY   76  64  66 S3        30.25S
NEW BERN       SUNNY     77  64  64 W6        30.25R
CHERRY POINT   SUNNY     78  65  63 SW8       30.25R
BEAUFORT       SUNNY     76  63  64 W6        30.24S
JACKSONVILLE   SUNNY     78  63  59 W7        30.24S
WILMINGTON     SUNNY     79  61  53 W9        30.25S
$$







000
ASUS42 KRAH 251210
RWRRAH
NORTH CAROLINA WEATHER ROUNDUP
NATIONAL WEATHER SERVICE RALEIGH NC
800 AM EDT WED MAY 25 2016

NOTE: "FAIR" INDICATES FEW OR NO CLOUDS BELOW 12,000 FEET WITH NO
SIGNIFICANT WEATHER AND/OR OBSTRUCTIONS TO VISIBILITY.

NCZ001-053-055-056-065-067-251300-
WESTERN NORTH CAROLINA

CITY           SKY/WX    TMP DP  RH WIND       PRES   REMARKS
ASHEVILLE      SUNNY     54  50  86 SW3       30.29R
JEFFERSON      SUNNY     52  47  82 CALM      30.31R
MORGANTON      SUNNY     57  53  86 CALM      30.29R
HICKORY        SUNNY     59  55  87 W5        30.24R
RUTHERFORDTON  SUNNY     59  54  83 CALM      30.25R
MOUNT AIRY     SUNNY     60  56  87 CALM      30.25R
BOONE          SUNNY     49  47  94 CALM      30.32S
$$

NCZ021-022-025-041-071-084-088-251300-
CENTRAL NORTH CAROLINA

CITY           SKY/WX    TMP DP  RH WIND       PRES   REMARKS
CHARLOTTE      MOSUNNY   67  58  72 CALM      30.23R
GREENSBORO     MOSUNNY   65  56  72 SW3       30.21S
WINSTON-SALEM  SUNNY     65  55  70 CALM      30.23S
RALEIGH-DURHAM MOSUNNY   64  59  83 SW5       30.22R
FORT BRAGG     PTSUNNY   67  61  81 SW5       30.21R
FAYETTEVILLE   SUNNY     66  60  81 SW3       30.21R
BURLINGTON     SUNNY     64  57  78 CALM      30.21S
LAURINBURG     MOSUNNY   65  61  87 CALM      30.22R
$$

NCZ011-015-027-028-043-044-047-080-103-251300-
NORTHEASTERN NORTH CAROLINA

CITY           SKY/WX    TMP DP  RH WIND       PRES   REMARKS
ROCKY MT-WILSO SUNNY     66  61  84 SW5       30.22R
GREENVILLE     SUNNY     68  61  77 W7        30.22R
WASHINGTON     SUNNY     66  60  80 SW8       30.21R
ELIZABETH CITY SUNNY     68  59  73 W9        30.19R
MANTEO         SUNNY     69  61  75 W5        30.20R
CAPE HATTERAS  SUNNY     71  62  73 W8        30.21R
$$

NCZ078-087-090-091-093-098-101-251300-
SOUTHEASTERN NORTH CAROLINA

CITY           SKY/WX    TMP DP  RH WIND       PRES   REMARKS
LUMBERTON      SUNNY     67  62  84 CALM      30.22R
GOLDSBORO      SUNNY     67  67 100 W8        30.21R
KINSTON        SUNNY     66  61  82 SW7       30.23R
KENANSVILLE    SUNNY     65  60  82 SW5       30.24R
NEW BERN       SUNNY     68  60  75 W7        30.23R
CHERRY POINT   SUNNY     69  61  75 W9        30.23R
BEAUFORT       SUNNY     70  60  70 W7        30.22S
JACKSONVILLE   SUNNY     67  60  78 W6        30.22R
WILMINGTON     SUNNY     69  62  78 SW5       30.23R
$$







000
ASUS42 KRAH 251110
RWRRAH
NORTH CAROLINA WEATHER ROUNDUP
NATIONAL WEATHER SERVICE RALEIGH NC
700 AM EDT WED MAY 25 2016

NOTE: "FAIR" INDICATES FEW OR NO CLOUDS BELOW 12,000 FEET WITH NO
SIGNIFICANT WEATHER AND/OR OBSTRUCTIONS TO VISIBILITY.

NCZ001-053-055-056-065-067-251200-
WESTERN NORTH CAROLINA

CITY           SKY/WX    TMP DP  RH WIND       PRES   REMARKS
ASHEVILLE      CLEAR     50  47  89 CALM      30.28R
JEFFERSON      CLEAR     52  45  78 W5        30.29R
MORGANTON      CLEAR     48  48 100 CALM      30.27S
HICKORY        CLEAR     57  54  89 CALM      30.22R
RUTHERFORDTON  CLEAR     54  53  98 CALM      30.24R
MOUNT AIRY     CLEAR     55  53  92 CALM      30.23S
BOONE          CLEAR     43  43 100 CALM      30.31R
$$

NCZ021-022-025-041-071-084-088-251200-
CENTRAL NORTH CAROLINA

CITY           SKY/WX    TMP DP  RH WIND       PRES   REMARKS
CHARLOTTE      PTCLDY    61  55  81 CALM      30.22R
GREENSBORO     PTCLDY    61  55  81 CALM      30.21R
WINSTON-SALEM  CLEAR     59  54  83 CALM      30.23R
RALEIGH-DURHAM PTCLDY    61  57  87 CALM      30.21R
FORT BRAGG     MOCLDY    62  58  87 SW1       30.19R
FAYETTEVILLE   CLEAR     61  57  87 S3        30.20R
BURLINGTON     CLEAR     57  54  89 CALM      30.21R
LAURINBURG     CLEAR     60  58  92 CALM      30.21R FOG
$$

NCZ011-015-027-028-043-044-047-080-103-251200-
NORTHEASTERN NORTH CAROLINA

CITY           SKY/WX    TMP DP  RH WIND       PRES   REMARKS
ROCKY MT-WILSO MOSUNNY   59  58  96 CALM      30.19R
GREENVILLE     MOSUNNY   61  59  94 SW3       30.20R FOG
WASHINGTON     SUNNY     61  57  88 SW3       30.19R FOG
ELIZABETH CITY MOSUNNY   64  59  83 SW8       30.17R
MANTEO         SUNNY     65  61  87 W3        30.19R
CAPE HATTERAS  SUNNY     68  62  81 W7        30.20R
$$

NCZ078-087-090-091-093-098-101-251200-
SOUTHEASTERN NORTH CAROLINA

CITY           SKY/WX    TMP DP  RH WIND       PRES   REMARKS
LUMBERTON      CLEAR     61  58  90 CALM      30.20R
GOLDSBORO      SUNNY     63  63 100 SW3       30.18R
KINSTON        SUNNY     61  59  94 SW6       30.20S
KENANSVILLE    SUNNY     57  56  97 CALM      30.22S
NEW BERN       SUNNY     61  57  87 SW6       30.22R
CHERRY POINT   SUNNY     62  58  86 W5        30.22R
BEAUFORT       MOSUNNY   66  59  78 MISG      30.22R
JACKSONVILLE   SUNNY     62  58  86 CALM      30.21R
WILMINGTON     CLEAR     62  59  90 CALM      30.21R
$$







000
ASUS42 KRAH 250910
RWRRAH
NORTH CAROLINA WEATHER ROUNDUP
NATIONAL WEATHER SERVICE RALEIGH NC
500 AM EDT WED MAY 25 2016

NOTE: "FAIR" INDICATES FEW OR NO CLOUDS BELOW 12,000 FEET WITH NO
SIGNIFICANT WEATHER AND/OR OBSTRUCTIONS TO VISIBILITY.

NCZ001-053-055-056-065-067-251000-
WESTERN NORTH CAROLINA

CITY           SKY/WX    TMP DP  RH WIND       PRES   REMARKS
ASHEVILLE      CLEAR     52  48  86 CALM      30.25R
JEFFERSON      NOT AVBL
MORGANTON      CLEAR     51  51 100 NW3       30.24S
HICKORY        CLEAR     57  54  89 NE3       30.18F
RUTHERFORDTON  CLEAR     55  55 100 CALM      30.19S
MOUNT AIRY     CLEAR     55  53  91 CALM      30.20F
BOONE          CLEAR     42  42 100 CALM      30.28S FOG
$$

NCZ021-022-025-041-071-084-088-251000-
CENTRAL NORTH CAROLINA

CITY           SKY/WX    TMP DP  RH WIND       PRES   REMARKS
CHARLOTTE      PTCLDY    58  54  86 CALM      30.18F
GREENSBORO     CLEAR     59  55  87 CALM      30.17F
WINSTON-SALEM  CLEAR     57  53  86 CALM      30.19S
RALEIGH-DURHAM MOCLDY    63  55  75 SW3       30.18R
FORT BRAGG     CLEAR     62  57  84 W1        30.17F
FAYETTEVILLE   CLEAR     61  57  87 SW3       30.18S
BURLINGTON     PTCLDY    57  54  89 S8        30.18R
LAURINBURG     CLEAR     59  57  93 CALM      30.19S
$$

NCZ011-015-027-028-043-044-047-080-103-251000-
NORTHEASTERN NORTH CAROLINA

CITY           SKY/WX    TMP DP  RH WIND       PRES   REMARKS
ROCKY MT-WILSO CLEAR     59  56  89 S3        30.17R
GREENVILLE     CLEAR     61  59  94 CALM      30.19R
WASHINGTON     CLEAR     61  56  85 CALM      30.18R
ELIZABETH CITY PTCLDY    63  58  83 SW8       30.15R
MANTEO         NOT AVBL
CAPE HATTERAS  CLEAR     67  63  87 W6        30.17R
$$

NCZ078-087-090-091-093-098-101-251000-
SOUTHEASTERN NORTH CAROLINA

CITY           SKY/WX    TMP DP  RH WIND       PRES   REMARKS
LUMBERTON      CLEAR     60  57  89 CALM      30.18S
GOLDSBORO      CLEAR     61  61 100 W5        30.17S
KINSTON        CLEAR     61  57  88 SW5       30.19R
KENANSVILLE    CLEAR     57  56  95 CALM      30.19F
NEW BERN       CLEAR     62  56  80 W6        30.19S
CHERRY POINT   CLEAR     59  56  89 CALM      30.19S
BEAUFORT       CLEAR     67  60  78 CALM      30.18S
JACKSONVILLE   CLEAR     60  57  89 W5        30.18R
WILMINGTON     CLEAR     61  59  93 CALM      30.19R
$$







000
ASUS42 KRAH 250710
RWRRAH
NORTH CAROLINA WEATHER ROUNDUP
NATIONAL WEATHER SERVICE RALEIGH NC
300 AM EDT WED MAY 25 2016

NOTE: "FAIR" INDICATES FEW OR NO CLOUDS BELOW 12,000 FEET WITH NO
SIGNIFICANT WEATHER AND/OR OBSTRUCTIONS TO VISIBILITY.

NCZ001-053-055-056-065-067-250800-
WESTERN NORTH CAROLINA

CITY           SKY/WX    TMP DP  RH WIND       PRES   REMARKS
ASHEVILLE      CLEAR     54  50  86 N5        30.24S
JEFFERSON      CLEAR     54  45  70 CALM      30.26R
MORGANTON      CLEAR     51  51 100 CALM      30.24R
HICKORY        CLEAR     60  55  83 CALM      30.18R
RUTHERFORDTON  CLEAR     57  57 100 CALM      30.19S
MOUNT AIRY     CLEAR     56  54  92 CALM      30.20R
BOONE          CLEAR     46  46 100 CALM      30.28S
$$

NCZ021-022-025-041-071-084-088-250800-
CENTRAL NORTH CAROLINA

CITY           SKY/WX    TMP DP  RH WIND       PRES   REMARKS
CHARLOTTE      MOCLDY    64  54  69 CALM      30.18R
GREENSBORO     PTCLDY    62  54  74 SW3       30.17R
WINSTON-SALEM  CLEAR     59  54  83 CALM      30.19R
RALEIGH-DURHAM PTCLDY    59  56  89 CALM      30.16R
FORT BRAGG     CLEAR     65  57  76 VRB2      30.16S
FAYETTEVILLE   CLEAR     63  57  81 SW6       30.17R
BURLINGTON     CLEAR     60  55  83 S3        30.16R
LAURINBURG     CLEAR     62  57  83 SW5       30.18S
$$

NCZ011-015-027-028-043-044-047-080-103-250800-
NORTHEASTERN NORTH CAROLINA

CITY           SKY/WX    TMP DP  RH WIND       PRES   REMARKS
ROCKY MT-WILSO CLEAR     59  55  87 S3        30.16R
GREENVILLE     CLEAR     63  59  88 SW5       30.17R
WASHINGTON     CLEAR     63  57  82 SW3       30.16R
ELIZABETH CITY CLEAR     62  59  90 SW8       30.13S
MANTEO         CLEAR     66  62  87 W6        30.15R
CAPE HATTERAS  CLEAR     67  62  84 W8        30.16R
$$

NCZ078-087-090-091-093-098-101-250800-
SOUTHEASTERN NORTH CAROLINA

CITY           SKY/WX    TMP DP  RH WIND       PRES   REMARKS
LUMBERTON      CLEAR     63  57  81 SW3       30.17S
GOLDSBORO      CLEAR     63  61  93 SW6       30.16R
KINSTON        CLEAR     61  57  85 SW6       30.18R
KENANSVILLE    CLEAR     58  56  92 CALM      30.18S
NEW BERN       CLEAR     63  56  78 SW6       30.18R
CHERRY POINT   CLEAR     59  56  89 S3        30.18R
BEAUFORT       CLEAR     68  62  81 W3        30.17S
JACKSONVILLE   CLEAR     62  57  83 W8        30.17R
WILMINGTON     PTCLDY    65  59  81 CALM      30.18R
$$







000
ASUS42 KRAH 250010
RWRRAH
NORTH CAROLINA WEATHER ROUNDUP
NATIONAL WEATHER SERVICE RALEIGH NC
800 PM EDT TUE MAY 24 2016

NOTE: "FAIR" INDICATES FEW OR NO CLOUDS BELOW 12,000 FEET WITH NO
SIGNIFICANT WEATHER AND/OR OBSTRUCTIONS TO VISIBILITY.

NCZ001-053-055-056-065-067-250100-
WESTERN NORTH CAROLINA

CITY           SKY/WX    TMP DP  RH WIND       PRES   REMARKS
ASHEVILLE      PTCLDY    73  52  47 S7        30.17R
JEFFERSON      CLEAR     69  46  43 W9        30.20R
MORGANTON      CLEAR     75  55  49 CALM      30.17R
HICKORY        CLEAR     75  53  46 S6        30.12R
RUTHERFORDTON  CLEAR     76  52  43 S5        30.13R
MOUNT AIRY     CLEAR     76  55  47 CALM      30.13R
BOONE          CLEAR     69  43  39 W7        30.22R
$$

NCZ021-022-025-041-071-084-088-250100-
CENTRAL NORTH CAROLINA

CITY           SKY/WX    TMP DP  RH WIND       PRES   REMARKS
CHARLOTTE      PTCLDY    75  53  46 SW6       30.12R
GREENSBORO     CLEAR     75  51  43 SW6       30.09R
WINSTON-SALEM  CLEAR     77  51  40 S5        30.11R
RALEIGH-DURHAM CLEAR     74  54  49 W3        30.08S
FORT BRAGG     CLEAR     79  53  40 SW6       30.08R
FAYETTEVILLE   CLEAR     77  55  46 SW7       30.09R
BURLINGTON     CLEAR     76  53  44 SW3       30.08S
LAURINBURG     CLEAR     76  56  49 SW6       30.10R
$$

NCZ011-015-027-028-043-044-047-080-103-250100-
NORTHEASTERN NORTH CAROLINA

CITY           SKY/WX    TMP DP  RH WIND       PRES   REMARKS
ROCKY MT-WILSO CLEAR     73  58  59 CALM      30.07R
GREENVILLE     CLEAR     75  59  57 SW3       30.08S
WASHINGTON     CLEAR     75  55  49 SW3       30.06S
ELIZABETH CITY CLEAR     74  58  57 SW5       30.05R
MANTEO         PTCLDY    75  63  66 SW10      30.07R
CAPE HATTERAS  CLEAR     69  61  75 SW12      30.10R
$$

NCZ078-087-090-091-093-098-101-250100-
SOUTHEASTERN NORTH CAROLINA

CITY           SKY/WX    TMP DP  RH WIND       PRES   REMARKS
LUMBERTON      CLEAR     77  56  48 SW6       30.10R
GOLDSBORO      CLEAR     78  53  41 SW6       30.07R
KINSTON        CLEAR     73  57  56 SW6       30.09R
KENANSVILLE    CLEAR     71  61  70 CALM      30.10R
NEW BERN       CLEAR     71  57  61 S8        30.11R
CHERRY POINT   PTCLDY    70  56  61 S7        30.11R
BEAUFORT       CLEAR     70  59  68 SW14      30.11R
JACKSONVILLE   CLEAR     71  57  61 S7        30.10R
WILMINGTON     CLEAR     73  55  53 SW8       30.11R
$$







000
ASUS42 KRAH 242310
RWRRAH
NORTH CAROLINA WEATHER ROUNDUP
NATIONAL WEATHER SERVICE RALEIGH NC
700 PM EDT TUE MAY 24 2016

NOTE: "FAIR" INDICATES FEW OR NO CLOUDS BELOW 12,000 FEET WITH NO
SIGNIFICANT WEATHER AND/OR OBSTRUCTIONS TO VISIBILITY.

NCZ001-053-055-056-065-067-250000-
WESTERN NORTH CAROLINA

CITY           SKY/WX    TMP DP  RH WIND       PRES   REMARKS
ASHEVILLE      MOSUNNY   75  51  43 S6        30.15R
JEFFERSON      SUNNY     71  42  34 W5        30.18S
MORGANTON      SUNNY     79  53  39 S6        30.15R
HICKORY        SUNNY     78  53  41 S7        30.10S
RUTHERFORDTON  SUNNY     78  52  39 S3        30.12R
MOUNT AIRY     SUNNY     79  54  41 S3        30.11S
BOONE          SUNNY     71  40  32 NW10      30.20R
$$

NCZ021-022-025-041-071-084-088-250000-
CENTRAL NORTH CAROLINA

CITY           SKY/WX    TMP DP  RH WIND       PRES   REMARKS
CHARLOTTE      MOSUNNY   78  51  38 SW5       30.11S
GREENSBORO     MOSUNNY   78  49  35 W8        30.08F
WINSTON-SALEM  SUNNY     79  50  36 SW6       30.10S
RALEIGH-DURHAM MOSUNNY   79  52  38 W7        30.08F
FORT BRAGG     SUNNY     81  54  39 W7        30.07S
FAYETTEVILLE   SUNNY     82  53  36 SW9       30.07F
BURLINGTON     SUNNY     80  52  37 S7        30.08S
LAURINBURG     SUNNY     81  52  36 W7        30.09F
$$

NCZ011-015-027-028-043-044-047-080-103-250000-
NORTHEASTERN NORTH CAROLINA

CITY           SKY/WX    TMP DP  RH WIND       PRES   REMARKS
ROCKY MT-WILSO SUNNY     81  53  37 W5        30.06F
GREENVILLE     SUNNY     81  54  39 W3        30.08S
WASHINGTON     SUNNY     80  53  38 W3        30.06S
ELIZABETH CITY SUNNY     78  56  46 W6        30.04R
MANTEO         PTSUNNY   76  63  64 SE3       30.06R
CAPE HATTERAS  SUNNY     71  61  70 SW15      30.09R
$$

NCZ078-087-090-091-093-098-101-250000-
SOUTHEASTERN NORTH CAROLINA

CITY           SKY/WX    TMP DP  RH WIND       PRES   REMARKS
LUMBERTON      SUNNY     81  55  40 SW9       30.09S
GOLDSBORO      SUNNY     82  50  32 SW7       30.06F
KINSTON        SUNNY     81  52  36 CALM      30.08S
KENANSVILLE    SUNNY     81  48  31 CALM      30.09S
NEW BERN       MOSUNNY   76  58  53 S12       30.09R
CHERRY POINT   SUNNY     73  57  57 SW13G18   30.10S
BEAUFORT       SUNNY     72  58  61 SW17      30.10F
JACKSONVILLE   SUNNY     74  57  55 SW9       30.09S
WILMINGTON     SUNNY     76  55  48 S9        30.10S
$$







    US Dept of Commerce
    National Oceanic and Atmospheric Administration
    National Weather Service
    1325 East West Highway
    Silver Spring, MD 20910
    Page Author: NWS Internet Services Team
Disclaimer
Information Quality
Credits
Glossary
Privacy Policy
Freedom of Information Act (FOIA)
About Us
Career Opportunities